DAL2613 KSEA-KSAN

Flight info

Callsign DAL2613
Flight time N/A
Altitude 37000
Route SUMMA2 SUMMA PAAGE Q11 PASKE HUULK COMIX2
Aircraft B738/M-SDE2E3FGHIRWXY/LB1

Departure

Time N/A
Airport Seattle–Tacoma International Airport (KSEA)

Arrival

Time 2026-04-20 00:26
Airport San Diego International Airport (KSAN)
Time Latitude Longitude Altitude Speed Heading
2026-04-19 23:02 40.99418 -120.41341 36966 ft 413 kts 171°
2026-04-19 23:02 40.93798 -120.39648 36970 ft 414 kts 169°
2026-04-19 23:03 40.88228 -120.37865 36968 ft 415 kts 169°
2026-04-19 23:03 40.82602 -120.36085 36973 ft 416 kts 169°
2026-04-19 23:04 40.76960 -120.34326 36970 ft 416 kts 169°
2026-04-19 23:04 40.71315 -120.32578 36973 ft 417 kts 169°
2026-04-19 23:05 40.65659 -120.30833 36969 ft 418 kts 170°
2026-04-19 23:05 40.59990 -120.29087 36965 ft 418 kts 170°
2026-04-19 23:06 40.54311 -120.27339 36962 ft 419 kts 170°
2026-04-19 23:06 40.48621 -120.25593 36962 ft 419 kts 170°
2026-04-19 23:07 40.42978 -120.23865 36957 ft 419 kts 170°
2026-04-19 23:07 40.37263 -120.22119 36961 ft 419 kts 170°
2026-04-19 23:08 40.31616 -120.20393 36965 ft 419 kts 170°
2026-04-19 23:08 40.25916 -120.18654 36972 ft 420 kts 170°
2026-04-19 23:09 40.20220 -120.16920 36973 ft 420 kts 170°
2026-04-19 23:09 40.14519 -120.15189 36972 ft 421 kts 170°
2026-04-19 23:10 40.08811 -120.13458 36979 ft 421 kts 170°
2026-04-19 23:10 40.03139 -120.11740 36981 ft 421 kts 170°
2026-04-19 23:11 39.97434 -120.10015 36980 ft 421 kts 170°
2026-04-19 23:11 39.91738 -120.08296 36980 ft 420 kts 170°
2026-04-19 23:12 39.86039 -120.06578 36980 ft 421 kts 170°
2026-04-19 23:12 39.80324 -120.04859 36984 ft 421 kts 170°
2026-04-19 23:13 39.74621 -120.03147 36979 ft 421 kts 170°
2026-04-19 23:13 39.68911 -120.01436 36984 ft 421 kts 170°
2026-04-19 23:14 39.64166 -120.00016 36979 ft 421 kts 170°
2026-04-19 23:14 39.57500 -119.98026 36980 ft 421 kts 170°
2026-04-19 23:15 39.52754 -119.96610 36986 ft 421 kts 170°
2026-04-19 23:15 39.46122 -119.94635 36976 ft 420 kts 170°
2026-04-19 23:16 39.40412 -119.92938 36984 ft 420 kts 170°
2026-04-19 23:16 39.34714 -119.91248 36977 ft 420 kts 170°
2026-04-19 23:17 39.29022 -119.89562 36989 ft 419 kts 170°
2026-04-19 23:17 39.23337 -119.87881 36989 ft 419 kts 170°
2026-04-19 23:18 39.17650 -119.86201 36987 ft 419 kts 170°
2026-04-19 23:18 39.12000 -119.84536 36988 ft 419 kts 170°
2026-04-19 23:19 39.06306 -119.82860 36978 ft 420 kts 170°
2026-04-19 23:19 39.00610 -119.81188 36963 ft 420 kts 170°
2026-04-19 23:20 38.94900 -119.79513 36963 ft 420 kts 170°
2026-04-19 23:20 38.89191 -119.77841 36967 ft 421 kts 170°
2026-04-19 23:21 38.83476 -119.76171 36975 ft 420 kts 170°
2026-04-19 23:21 38.77771 -119.74504 36992 ft 420 kts 170°
2026-04-19 23:22 38.72097 -119.72853 36964 ft 420 kts 170°
2026-04-19 23:22 38.66387 -119.71192 36959 ft 421 kts 170°
2026-04-19 23:23 38.60659 -119.69529 36949 ft 422 kts 170°
2026-04-19 23:23 38.54935 -119.67869 36950 ft 422 kts 170°
2026-04-19 23:24 38.49205 -119.66210 36947 ft 422 kts 170°
2026-04-19 23:24 38.43513 -119.64565 36945 ft 422 kts 170°
2026-04-19 23:25 38.37781 -119.62911 36952 ft 422 kts 170°
2026-04-19 23:25 38.32051 -119.61259 36968 ft 422 kts 170°
2026-04-19 23:26 38.26321 -119.59622 36962 ft 422 kts 170°
2026-04-19 23:26 38.20589 -119.57997 36965 ft 422 kts 170°
2026-04-19 23:27 38.14859 -119.56373 36981 ft 422 kts 170°
2026-04-19 23:27 38.09130 -119.54751 36978 ft 421 kts 170°
2026-04-19 23:28 38.03399 -119.53131 36989 ft 422 kts 170°
2026-04-19 23:28 37.97663 -119.51511 36990 ft 422 kts 171°
2026-04-19 23:29 37.91922 -119.49893 36984 ft 422 kts 171°
2026-04-19 23:29 37.86222 -119.48289 36985 ft 423 kts 171°
2026-04-19 23:30 37.80475 -119.46674 36986 ft 423 kts 171°
2026-04-19 23:30 37.74722 -119.45058 37003 ft 423 kts 171°
2026-04-19 23:31 37.68969 -119.43446 37012 ft 424 kts 171°
2026-04-19 23:31 37.63204 -119.41834 37002 ft 424 kts 171°
2026-04-19 23:32 37.57433 -119.40223 36997 ft 425 kts 171°
2026-04-19 23:32 37.51656 -119.38612 37006 ft 425 kts 171°
2026-04-19 23:33 37.45881 -119.37004 36999 ft 425 kts 171°
2026-04-19 23:33 37.40101 -119.35398 36990 ft 425 kts 171°
2026-04-19 23:34 37.34366 -119.33808 36990 ft 424 kts 171°
2026-04-19 23:34 37.28601 -119.32209 36992 ft 424 kts 171°
2026-04-19 23:35 37.22825 -119.30611 36954 ft 425 kts 171°
2026-04-19 23:35 37.17058 -119.29018 36941 ft 424 kts 171°
2026-04-19 23:36 37.11290 -119.27427 36938 ft 424 kts 171°
2026-04-19 23:36 37.05566 -119.25851 36914 ft 424 kts 171°
2026-04-19 23:37 36.99806 -119.24268 36918 ft 423 kts 171°
2026-04-19 23:37 36.94055 -119.22690 36901 ft 424 kts 171°
2026-04-19 23:38 36.88279 -119.21107 36888 ft 424 kts 171°
2026-04-19 23:38 36.82543 -119.19537 36888 ft 424 kts 171°
2026-04-19 23:39 36.76782 -119.17963 36869 ft 424 kts 171°
2026-04-19 23:39 36.71016 -119.16389 36876 ft 424 kts 171°
2026-04-19 23:40 36.65251 -119.14818 36875 ft 424 kts 171°
2026-04-19 23:40 36.59482 -119.13250 36883 ft 425 kts 171°
2026-04-19 23:41 36.53698 -119.11681 36887 ft 425 kts 171°
2026-04-19 23:41 36.47918 -119.10113 36885 ft 426 kts 171°
2026-04-19 23:42 36.42116 -119.08542 36891 ft 427 kts 171°
2026-04-19 23:42 36.36338 -119.06980 36888 ft 427 kts 171°
2026-04-19 23:43 36.30524 -119.05410 36892 ft 428 kts 171°
2026-04-19 23:43 36.24725 -119.03847 36894 ft 428 kts 171°
2026-04-19 23:44 36.19872 -119.02540 36900 ft 428 kts 172°
2026-04-19 23:44 36.14052 -119.00977 36894 ft 428 kts 171°
2026-04-19 23:45 36.08227 -118.99417 36897 ft 428 kts 172°
2026-04-19 23:45 36.02395 -118.97860 36889 ft 428 kts 172°
2026-04-19 23:46 35.96570 -118.96310 36886 ft 428 kts 172°
2026-04-19 23:46 35.90735 -118.94755 36888 ft 429 kts 172°
2026-04-19 23:47 35.84940 -118.93213 36890 ft 429 kts 172°
2026-04-19 23:47 35.79095 -118.91662 36890 ft 429 kts 172°
2026-04-19 23:48 35.73250 -118.90111 36889 ft 430 kts 172°
2026-04-19 23:48 35.67399 -118.88563 36889 ft 431 kts 172°
2026-04-19 23:49 35.61525 -118.87012 36892 ft 432 kts 172°
2026-04-19 23:49 35.55641 -118.85463 36892 ft 432 kts 172°
2026-04-19 23:50 35.49793 -118.83919 36885 ft 433 kts 172°
2026-04-19 23:50 35.43886 -118.82365 36888 ft 433 kts 172°
2026-04-19 23:51 35.37991 -118.80813 36895 ft 433 kts 172°
2026-04-19 23:51 35.32098 -118.79266 36909 ft 433 kts 172°
2026-04-19 23:52 35.26219 -118.77726 36930 ft 432 kts 172°
2026-04-19 23:52 35.20327 -118.76185 36941 ft 432 kts 172°
2026-04-19 23:53 35.14486 -118.74659 36967 ft 432 kts 172°
2026-04-19 23:53 35.08612 -118.73126 36995 ft 431 kts 172°
2026-04-19 23:54 35.02731 -118.71596 37006 ft 432 kts 172°
2026-04-19 23:54 34.96847 -118.70067 37020 ft 432 kts 172°
2026-04-19 23:55 34.90956 -118.68536 37024 ft 433 kts 172°
2026-04-19 23:55 34.85046 -118.67003 37032 ft 434 kts 172°
2026-04-19 23:56 34.79129 -118.65472 37048 ft 435 kts 172°
2026-04-19 23:56 34.73230 -118.63946 37060 ft 435 kts 172°
2026-04-19 23:57 34.67301 -118.62414 37063 ft 436 kts 172°
2026-04-19 23:57 34.61356 -118.60864 37047 ft 438 kts 169°
2026-04-19 23:58 34.55689 -118.58031 37027 ft 448 kts 154°
2026-04-19 23:58 34.50308 -118.54140 37017 ft 449 kts 154°
2026-04-19 23:59 34.44957 -118.50246 37002 ft 449 kts 154°
2026-04-19 23:59 34.39617 -118.46417 36988 ft 448 kts 154°
2026-04-20 00:00 34.34997 -118.43131 36974 ft 447 kts 154°
2026-04-20 00:00 34.29631 -118.39326 36968 ft 447 kts 154°
2026-04-20 00:01 34.24264 -118.35531 36985 ft 446 kts 154°
2026-04-20 00:02 34.16244 -118.29862 36965 ft 445 kts 154°
2026-04-20 00:02 34.10901 -118.26090 36979 ft 444 kts 154°
2026-04-20 00:03 34.05545 -118.22315 36538 ft 451 kts 154°
2026-04-20 00:03 34.02844 -118.20413 35991 ft 449 kts 154°
2026-04-20 00:03 34.00148 -118.18516 35312 ft 449 kts 154°
2026-04-20 00:03 33.97428 -118.16604 34528 ft 452 kts 153°
2026-04-20 00:04 33.94709 -118.14694 33813 ft 452 kts 153°
2026-04-20 00:04 33.91982 -118.12779 33071 ft 453 kts 153°
2026-04-20 00:04 33.89263 -118.10870 32313 ft 452 kts 153°
2026-04-20 00:04 33.86578 -118.08988 31545 ft 452 kts 153°
2026-04-20 00:05 33.83862 -118.07092 30761 ft 450 kts 153°
2026-04-20 00:05 33.81139 -118.05256 29994 ft 448 kts 154°
2026-04-20 00:05 33.78408 -118.03457 29128 ft 448 kts 154°
2026-04-20 00:05 33.75663 -118.01659 28243 ft 450 kts 154°
2026-04-20 00:06 33.72915 -117.99858 27553 ft 448 kts 153°
2026-04-20 00:06 33.70194 -117.98068 26950 ft 444 kts 153°
2026-04-20 00:06 33.67494 -117.96286 26334 ft 440 kts 153°
2026-04-20 00:06 33.64819 -117.94520 25719 ft 437 kts 153°
2026-04-20 00:07 33.62171 -117.92772 25110 ft 433 kts 153°
2026-04-20 00:07 33.59541 -117.91036 24497 ft 430 kts 153°
2026-04-20 00:07 33.56927 -117.89313 23878 ft 426 kts 153°
2026-04-20 00:07 33.54340 -117.87607 23268 ft 423 kts 153°
2026-04-20 00:08 33.51783 -117.85879 22668 ft 419 kts 152°
2026-04-20 00:08 33.49256 -117.84147 22051 ft 416 kts 152°
2026-04-20 00:08 33.46754 -117.82435 21430 ft 412 kts 152°
2026-04-20 00:08 33.44327 -117.80718 20840 ft 410 kts 148°
2026-04-20 00:09 33.42091 -117.78616 20239 ft 408 kts 140°
2026-04-20 00:09 33.39993 -117.76345 19639 ft 404 kts 139°
2026-04-20 00:09 33.37925 -117.74083 19036 ft 401 kts 139°
2026-04-20 00:09 33.35872 -117.71850 18442 ft 397 kts 140°
2026-04-20 00:10 33.33832 -117.69651 17840 ft 393 kts 140°
2026-04-20 00:10 33.31801 -117.67474 17245 ft 390 kts 140°
2026-04-20 00:10 33.29786 -117.65323 16658 ft 386 kts 140°
2026-04-20 00:10 33.27789 -117.63195 16073 ft 383 kts 139°
2026-04-20 00:11 33.25808 -117.61087 15490 ft 380 kts 139°
2026-04-20 00:11 33.23838 -117.58998 14910 ft 376 kts 140°
2026-04-20 00:11 33.21882 -117.56937 14328 ft 373 kts 140°
2026-04-20 00:11 33.19940 -117.54896 13762 ft 370 kts 139°
2026-04-20 00:12 33.18019 -117.52876 13196 ft 367 kts 139°
2026-04-20 00:12 33.16107 -117.50867 12633 ft 364 kts 139°
2026-04-20 00:12 33.14216 -117.48883 12071 ft 361 kts 140°
2026-04-20 00:12 33.12281 -117.47096 11761 ft 351 kts 145°
2026-04-20 00:13 33.10298 -117.45464 11484 ft 341 kts 146°
2026-04-20 00:13 33.08366 -117.43882 11194 ft 332 kts 146°
2026-04-20 00:13 33.06491 -117.42333 10949 ft 324 kts 146°
2026-04-20 00:13 33.04660 -117.40812 10690 ft 317 kts 146°
2026-04-20 00:14 33.02907 -117.39343 10426 ft 310 kts 146°
2026-04-20 00:14 33.01126 -117.37847 10216 ft 302 kts 146°
2026-04-20 00:14 32.99427 -117.36421 9985 ft 296 kts 146°
2026-04-20 00:14 32.97776 -117.35035 9953 ft 283 kts 146°
2026-04-20 00:15 32.96182 -117.33698 9634 ft 282 kts 146°
2026-04-20 00:15 32.94586 -117.32362 9380 ft 279 kts 146°
2026-04-20 00:15 32.93028 -117.31059 9141 ft 275 kts 146°
2026-04-20 00:15 32.91457 -117.29745 8925 ft 270 kts 146°
2026-04-20 00:16 32.89951 -117.28491 8730 ft 259 kts 146°
2026-04-20 00:16 32.88514 -117.27297 8498 ft 254 kts 146°
2026-04-20 00:16 32.87044 -117.26075 8286 ft 253 kts 146°
2026-04-20 00:16 32.85613 -117.24886 8093 ft 255 kts 146°
2026-04-20 00:17 32.84146 -117.23669 7880 ft 258 kts 146°
2026-04-20 00:17 32.82669 -117.22444 7660 ft 258 kts 146°
2026-04-20 00:17 32.81359 -117.21006 7432 ft 259 kts 125°
2026-04-20 00:17 32.80642 -117.19051 7251 ft 259 kts 107°
2026-04-20 00:18 32.80190 -117.16984 7046 ft 258 kts 106°
2026-04-20 00:18 32.79755 -117.14928 6833 ft 257 kts 106°
2026-04-20 00:18 32.79309 -117.12859 6621 ft 257 kts 107°
2026-04-20 00:18 32.78857 -117.10805 6415 ft 256 kts 107°
2026-04-20 00:19 32.78402 -117.08760 6207 ft 255 kts 107°
2026-04-20 00:19 32.77957 -117.06756 5980 ft 246 kts 107°
2026-04-20 00:19 32.77505 -117.04832 5779 ft 237 kts 108°
2026-04-20 00:19 32.77055 -117.02985 5606 ft 230 kts 108°
2026-04-20 00:20 32.76608 -117.01166 5412 ft 229 kts 108°
2026-04-20 00:20 32.76162 -116.99339 5241 ft 230 kts 108°
2026-04-20 00:20 32.75633 -116.97562 4991 ft 233 kts 120°
2026-04-20 00:20 32.74576 -116.96142 4718 ft 229 kts 147°
2026-04-20 00:21 32.73132 -116.95461 4450 ft 221 kts 173°
2026-04-20 00:21 32.71626 -116.95514 4203 ft 214 kts 193°
2026-04-20 00:21 32.70307 -116.96254 3959 ft 208 kts 216°
2026-04-20 00:21 32.69352 -116.97503 3742 ft 204 kts 238°
2026-04-20 00:22 32.68833 -116.99067 3444 ft 206 kts 259°
2026-04-20 00:22 32.68893 -117.00751 3177 ft 205 kts 282°
2026-04-20 00:22 32.69298 -117.02357 2931 ft 203 kts 285°
2026-04-20 00:22 32.69695 -117.03950 2663 ft 196 kts 285°
2026-04-20 00:23 32.70070 -117.05460 2420 ft 184 kts 285°
2026-04-20 00:23 32.70408 -117.06838 2235 ft 166 kts 285°
2026-04-20 00:23 32.70719 -117.08096 1991 ft 152 kts 285°
2026-04-20 00:23 32.71029 -117.09364 1738 ft 161 kts 285°
2026-04-20 00:24 32.71331 -117.10632 1522 ft 163 kts 285°
2026-04-20 00:24 32.71648 -117.11936 1284 ft 163 kts 286°
2026-04-20 00:24 32.71955 -117.13208 1045 ft 162 kts 286°
2026-04-20 00:24 32.72261 -117.14493 803 ft 161 kts 285°
2026-04-20 00:25 32.72573 -117.15763 551 ft 158 kts 285°
2026-04-20 00:25 32.72879 -117.17020 269 ft 159 kts 286°
2026-04-20 00:25 32.73187 -117.18273 35 ft 153 kts 286°
2026-04-20 00:25 32.73448 -117.19346 23 ft 108 kts 285°
2026-04-20 00:26 32.73570 -117.19840 25 ft 39 kts 287°
2026-04-20 00:26 32.73635 -117.20145 23 ft 25 kts 264°
2026-04-20 00:26 32.73560 -117.20218 23 ft 10 kts 198°
2026-04-20 00:26 32.73496 -117.20241 22 ft 10 kts 196°
2026-04-20 00:27 32.73417 -117.20269 22 ft 13 kts 196°
2026-04-20 00:27 32.73380 -117.20314 20 ft 8 kts 266°
2026-04-20 00:27 32.73378 -117.20350 20 ft 0 kts 268°